SL-12 R/B(AUX MOTOR)

Satellite information

Favourite Embed

Satellite Type and Status

ROCKET BODYIN ORBIT

Key statistics

Satellite SL-12 R/B(AUX MOTOR) at a glance.

Uptime

15549

Days in orbit

Revolutions

≈ 8.6

Per day

Orbit

MEO

Medium Earth Orbit

Inclination

52.1

Latest

Satellite identification and parameters

Extended collection of information and parameters for SL-12 R/B(AUX MOTOR).

Object identification

Identified? True

Debris? False

Object name: SL-12 R/B(AUX MOTOR)

International designator: 1982-100F

Object number (NORAD): 13608

Object ID (CCSDS): 13608

Country: COMMONWEALTH OF INDEPENDENT STATES (CIS)

Current information (Y/N): Y

RCS size: MEDIUM

Orbital parameters

Period: 166.66 minutes

Inclination: 52.0517 deg

SMA: 10031.841 km

Apoapsis: 7057.864 km

Periapsis: 249.548 km

RAAN: 157.9785 deg

Eccentricy: 0.3393353

Argument of periapsis: 281.9957 deg

Mean anomaly: 42.6135 deg

Mean motion: 8.64035932 rev/day

Mean motion (dot): 0.00030415 rev/day2

B* drag term: 0.00092319 1/REarth

Two-line elements (TLE)

Creation date: May 7, 2025, 2:36 p.m.

Reference frame: TEME

Reference center: EARTH

Epoch: May 7, 2025, 11:22 a.m. UTC

TLE line 0: 0 SL-12 R/B(AUX MOTOR)

TLE line 1: 1 13608U 82100F 25127.47407513 .00030415 00000-0 92319-3 0 9997

TLE line 2: 2 13608 52.0517 157.9785 3393353 281.9957 42.6135 8.64035932950669

Live tracking on map

Real-time ground track for satellite SL-12 R/B(AUX MOTOR).

In-orbit conjunctions

There are no conjunctions computed for SL-12 R/B(AUX MOTOR), at the moment. Check back to stay up to date, as we update our databases every day.

Go to all conjunctions

Associated space launch

GLONASS navigation satellite

SL-12 R/B(AUX MOTOR) was lifted into orbit during the mission ‘Proton | Uragan 1’, on board a Proton space rocket.

The launch took place on Oct. 12, 1982, 2:56 p.m. from 200/39 (200L).

For more information about the launch, click the button.

Launch to space Proton | Uragan 1
Proton | Uragan 1

Agency: N/A

Status: Launch Successful

Launch date: Oct. 12, 1982, 2:56 p.m. UTC

Rocket: Proton

Launch pad: 200/39 (200L)

Location: Baikonur Cosmodrome, Republic of Kazakhstan

...

Latest news about this satellite

There are no fresh news available about this satellite. Check back as we update our databases every day.


Newsletter sign-up

Weekly statistics, charts and insights to help you stay on top of the space industry.